Other Surface Observations
Issued by NWS

Home | Current Version | Previous Version | Text Only | Print | Product List | Glossary On
Versions: 1 2 3 4 5 6 7 8 9 10 11 12 13 14 15 16 17 18 19 20 21 22 23 24 25 26 27 28 29 30 31 32 33 34 35 36 37 38 39 40 41 42 43 44 45 46 47 48 49 50
217
SXUS52 KTAE 301518
OSOTAE
OSOTAE
North Florida/South Alabama/Southwest Georgia Weather Roundup
National Weather Service Tallahassee Florida
1100 AM EDT THU MAR 30 2017

Note: "fair" indicates few or no clouds below 12,000 feet with no
significant weather and/or obstructions to visibility.

!FLZ017-115-028-034-025-301600
...North Florida...

CITY           SKY/WX    TMP DP  RH WIND       PRES   REMARKS
TALLAHASSEE    PTSUNNY   75  61  61 SW7       30.02R
APALACHICOLA   PTSUNNY   75  68  78 S6        30.01R
PERRY          SUNNY     80  56  42 S6        30.01R
CROSS CITY     SUNNY     81  55  41 E6        30.00S
JACKSONVILLE   MOSUNNY   80  61  52 S13       30.00R
$$

!FLZ112-006-005-002-011-301600
...Florida Panhandle...

CITY           SKY/WX    TMP DP  RH WIND       PRES   REMARKS
MARIANNA       PTSUNNY   73  63  70 CALM      30.00F
BONIFAY        NOT AVBL
PANAMA CITY NW PTSUNNY   75  66  73 S10       30.00S
TYNDALL AFB    MOSUNNY   76  66  71 SW8       30.01R
TYND DRONE APT FAIR      74  69  82 S6        30.01R
DE FUNIAK SPR  PTSUNNY   72  66  81 S6        30.00S
EGLIN AFB      PTSUNNY   74  68  81 SE12      29.97F
DESTIN         PTSUNNY   75  73  93 SE9       29.98S
HURLBURT       CLOUDY    73  66  78 SE14      29.96S
CRESTVIEW      PTSUNNY   74  67  78 SE6       29.99F
PENSACOLA      CLOUDY    78  69  73 SE10      29.95F
$$

!ALZ063-066-301600
...South Alabama...

CITY           SKY/WX    TMP DP  RH WIND       PRES   REMARKS
DOTHAN         SUNNY     74  62  66 SW6       30.03F
OZARK CAIRNS   MOSUNNY   73  64  73 SW3       30.00F
FT RUCKER HELI SUNNY     72  64  74 SE3       30.00F
RUCKER HELI 3  FAIR      72  64  76 SW3       29.99F
RUCKER HELI 2  FAIR      73  63  70 S3        29.99S
FLORALA APT    MOSUNNY   72  64  76 VRB5      30.00F
ANDALUSIA      CLOUDY    74  65  73 SE7       29.97F
TROY           SUNNY     73  65  75 SE9       29.98F
EUFALA         FAIR      77  61  57 S6        29.99F
MOBILE         PTSUNNY   77  67  71 S13       29.92F
$$

!GAZ120>161-301600
...Southwest and South Central Georgia...

CITY           SKY/WX    TMP DP  RH WIND       PRES   REMARKS
THOMASVILLE    PTSUNNY   75  61  60 SW6       30.03R
BAINBRIDGE     SUNNY     73  61  64 W5        30.02F
MOODY AFB      PTSUNNY   79  55  43 S3        30.00R
VALDOSTA       MOSUNNY   78  54  43 VRB5      30.01R
MOULTRIE       PTSUNNY   72  57  60 CALM      30.03S
BLAKELY        SUNNY     77  59  53 CALM      30.02F
ALBANY         PTSUNNY   75  57  53 W7        30.04S
TIFTON         PTSUNNY   73  58  59 CALM      30.02R
FITZGERALD     PTSUNNY   76  61  60 CALM      30.05R
CORDELE        PTSUNNY   78  58  50 W3        30.04R
AMERICUS       PTSUNNY   72  50  46 W5        30.05S
HOMERVILLE     FAIR      77  61  57 CALM      30.02R
$$

!GMZ750-755-770-775-301600
...Coastal and Buoy Obs...

STATION/POSITION TIME  TEMP    WIND        PRES    VSBY  WAVE
                       AIR SEA DIR/SP/G                  HT/PER
                 (UTC) (F)     (DEG/KT/KT) (MB)    (MI)  (FT/S)
KEATON BEACH     1500   75     190/  8/  9 1015.8R
CEDAR KEY        1500   74     130/  6/  6 1016.3R
C TOWER          1500   71     200/  2/  3 1016.8R
APALACHICOLA BUO 1450   71 71  160/  8/ 10 1015.5R         2/ 4
PANAMA CITY BUOY 1350   73 72              1015.2          3/ 5
MOBILE BUOY      1500   74 73  140/ 12/ 16 1013.4
ORANGE BCH AL BU 1450   71 71  130/ 10/ 12 1013.5F         4/ 6
$$




USA.gov is the U.S. government's official web portal to all federal, state and local government web resources and services.